www.pogodaiklimat.ru

Погода и климат >> Архив погоды >> Норвегия >> Солвер III


ПОГОДА в Солвер III

  • Прогноз погоды в Солвер III
  • Монитор погоды в Солвер III

АРХИВ ПОГОДЫ в Солвер III

Время (UTC), дата Ветер
(напр.,м/с)
 
Видим.   Явления Облачность Т
(С)
Тd
(С)
f
(%)
Тe
(С)
Тes
(С)
Комфортность P
(гПа)
Po
(гПа)
Тmin
(С)
Tmax
(С)
R
(мм)
R24
(мм)
S
(см)
19 16.09 СВ 5-6
{8}
н/о н/о +10.6 +6.8 77 +8 +8 997.9 996.8
20 16.09 СВ 3-4
{5}
н/о н/о +10.3 +6.5 77 +8 +8 998.0 996.8
21 16.09 СВ 4-5
{5}
н/о н/о +10.4 +6.9 79 +8 +8 998.1 996.9
22 16.09 В 1-3
{4}
н/о н/о +9.9 +6.4 79 +10 +10 998.2 997.0
23 16.09 штиль 0-1
{1}
н/о н/о +9.8 +6.5 80 +9 +9 998.2 997.0
00 17.09 ЮВ 1-2
{8}
н/о н/о +9.5 +7.1 85 +9 +9 998.4 997.2
01 17.09 штиль 0-1
{2}
н/о н/о +9.2 +6.8 85 +8 +8 998.6 997.4
02 17.09 ЮВ 1-1
{1}
н/о н/о +9.4 +6.5 82 +9 +9 998.9 997.7
03 17.09 ЮВ 2-2
{3}
н/о н/о +9.4 +6.5 82 +8 +8 998.9 997.7
04 17.09 Ю 2-2
{2}
н/о н/о +8.9 +6.7 86 +7 +7 999.3 998.1
05 17.09 ЮВ 2-2
{2}
н/о н/о +8.7 +6.8 88 +7 +7 999.7 998.5
06 17.09 ЮЗ 2-2
{3}
н/о н/о +8.8 +7.1 89 +7 +7 1000.3 999.1 +8.6 +11.0
07 17.09 ЮЗ 2-3
{3}
н/о н/о +10.0 +7.6 85 +8 +8 1000.8 999.6
08 17.09 Ю 2-3
{3}
н/о н/о +10.6 +7.8 83 +9 +9 1001.6 1000.4
09 17.09 ЮЗ 2-3
{4}
н/о н/о +11.5 +8.0 79 +10 +10 1002.3 1001.1
10 17.09 СЗ 2-3
{3}
н/о н/о +12.1 +6.2 67 +11 +11 1002.9 1001.7
11 17.09 СЗ 5-8
{8}
н/о н/о +10.8 +6.2 73 +8 +8 1003.5 1002.3
12 17.09 С 5-7
{12}
н/о н/о +9.0 +5.4 78 +6 +6 1004.5 1003.2
13 17.09 З 3-5
{6}
н/о н/о +9.7 +7.5 86 +7 +7 1004.7 1003.5
14 17.09 СЗ 4-5
{6}
н/о н/о +9.9 +6.3 78 +7 +7 1005.1 1003.9
15 17.09 С 1-5
{6}
н/о н/о +10.5 +5.9 73 +10 +10 1005.4 1004.2
16 17.09 С 2-2
{3}
н/о н/о +10.0 +6.0 76 +9 +9 1005.8 1004.6
17 17.09 З 3-4
{4}
н/о н/о +9.1 +6.4 83 +7 +7 1006.0 1004.8
18 17.09 Ю 1-3
{6}
н/о н/о +8.3 +6.4 88 +7 +7 1006.3 1005.1 +8.2 +12.9
19 17.09 СВ 3-5
{5}
н/о н/о +8.3 +6.6 89 +6 +6 1006.9 1005.7
20 17.09 ЮЗ 2-3
{4}
н/о н/о +7.4 +6.2 92 +5 +5 1007.2 1005.9
21 17.09 ЮЗ 3-3
{4}
н/о н/о +7.2 +6.2 93 +4 +4 1007.5 1006.3
22 17.09 ЮЗ 2-3
{5}
н/о н/о +7.7 +6.6 93 +6 +6 1007.8 1006.5
23 17.09 З 1-3
{4}
н/о н/о +8.9 +6.5 85 +8 +8 1007.9 1006.7
00 18.09 В 3-3
{8}
н/о н/о +8.3 +5.2 81 +6 +6 1008.2 1006.9
01 18.09 ЮВ 2-3
{4}
н/о н/о +7.5 +6.1 91 +5 +5 1008.3 1007.1
02 18.09 Ю 3-4
{4}
н/о н/о +7.8 +6.6 92 +5 +5 1008.4 1007.2
03 18.09 Ю 2-4
{5}
н/о н/о +7.9 +6.5 91 +6 +6 1008.4 1007.2
04 18.09 Ю 1-3
{3}
н/о н/о +7.8 +6.6 92 +7 +7 1008.9 1007.7
05 18.09 ЮЗ 2-3
{3}
н/о н/о +8.0 +6.9 93 +6 +6 1009.4 1008.1
06 18.09 СВ 2-3
{5}
н/о н/о +8.7 +6.2 84 +7 +7 1010.1 1008.9 +7.0 +9.2
07 18.09 С 4-5
{6}
н/о н/о +9.4 +6.1 80 +7 +7 1010.6 1009.4
08 18.09 С 6-8
{8}
н/о н/о +10.1 +5.9 75 +7 +7 1011.4 1010.2
09 18.09 -12
{12}
н/о н/о +10.0 +5.4 73 1012.0 1010.7
10 18.09 С 8-11
{12}
н/о н/о +10.2 +3.9 65 +6 +6 1012.6 1011.4
11 18.09 С 8-9
{10}
н/о н/о +10.5 +4.9 68 +7 +7 1013.1 1011.9
12 18.09 С 6-9
{12}
н/о н/о +10.4 +4.1 65 +7 +7 1013.8 1012.6
13 18.09 С 8-11
{13}
н/о н/о +9.4 +4.4 71 +5 +5 1014.4 1013.2
14 18.09 С 10-12
{15}
н/о н/о +10.1 +4.3 67 +6 +6 1014.9 1013.6
15 18.09 С 10-12
{14}
н/о н/о +9.8 +4.6 70 +5 +5 1015.6 1014.4
16 18.09 С 11-14
{14}
н/о н/о +9.4 +3.4 66 +5 +5 1016.1 1014.9
17 18.09 С 10-13
{14}
н/о н/о +9.0 +3.8 70 +4 +4 1016.4 1015.2
18 18.09 С 10-12
{15}
н/о н/о +8.7 +2.9 67 +4 +4 1016.8 1015.5 +8.4 +10.8
19 18.09 -12
{12}
н/о н/о +8.2 +4.2 76 1017.0 1015.8
20 18.09 -12
{14}
н/о н/о +7.0 +3.3 77 1017.8 1016.5
21 18.09 С 11-13
{15}
н/о н/о +8.4 +3.1 69 +3 +3 1018.1 1016.9
22 18.09 С 10-13
{14}
н/о н/о +8.4 +2.2 65 +4 +4 1018.4 1017.2
23 18.09 С 7-12
{18}
н/о н/о +7.8 +2.5 69 +4 +4 1019.1 1017.9
00 19.09 С 9-12
{18}
н/о н/о +8.4 +1.6 62 +4 +4 1019.5 1018.2
01 19.09 -12
{13}
н/о н/о +7.7 +1.3 64 1019.9 1018.7
02 19.09 СЗ 8-13
{13}
н/о н/о +8.1 +2.6 68 +4 +4 1019.9 1018.6
03 19.09 СЗ 6-15
{15}
н/о н/о +7.4 +0.4 61 +3 +3 1020.2 1019.0
04 19.09 СЗ 4-7
{7}
н/о н/о +7.2 +2.3 71 +4 +4 1020.3 1019.1
05 19.09 С 5-8
{9}
н/о н/о +6.7 +2.8 76 +3 +3 1020.1 1018.8
06 19.09 С 6-8
{15}
н/о н/о +6.1 +2.8 79 +1 +1 1020.3 1019.1 +5.9 +8.8
07 19.09 СЗ 4-6
{7}
н/о н/о +7.2 +2.7 73 +4 +4 1020.3 1019.0
08 19.09 СЗ 4-6
{11}
н/о н/о +7.0 +1.9 70 +4 +4 1020.7 1019.4
09 19.09 С 8-11
{11}
н/о н/о +6.4 +3.0 79 +1 +1 1020.9 1019.7
10 19.09 СЗ 7-9
{9}
н/о н/о +8.5 +1.7 62 +5 +5 1021.0 1019.8
11 19.09 З 3-6
{9}
н/о н/о +8.6 +3.5 70 +6 +6 1021.1 1019.9
12 19.09 СЗ 2-4
{13}
н/о н/о +8.2 +2.5 67 +7 +7 1021.2 1019.9
13 19.09 СЗ 6-8
{9}
н/о н/о +9.2 +2.8 64 +6 +6 1021.1 1019.9
14 19.09 СЗ 7-9
{10}
н/о н/о +9.1 +2.2 62 +5 +5 1020.7 1019.5
15 19.09 СЗ 9-12
{12}
н/о н/о +7.3 +2.6 72 +2 +2 1020.7 1019.4
16 19.09 СЗ 6-8
{8}
н/о н/о +7.9 +2.4 68 +4 +4 1020.4 1019.1
17 19.09 СЗ 6-7
{11}
н/о н/о +7.9 +1.8 65 +4 +4 1020.2 1018.9
18 19.09 СЗ 3-5
{12}
н/о н/о +7.2 +2.5 72 +4 +4 1020.1 1018.8 +5.8 +9.8
19 19.09 З 2-4
{6}
н/о н/о +7.0 +2.3 72 +5 +5 1019.9 1018.6
20 19.09 СЗ 2-3
{6}
н/о н/о +6.5 +1.4 70 +4 +4 1019.2 1018.0
21 19.09 ЮЗ 3-4
{4}
н/о н/о +5.9 +2.9 81 +3 +3 1019.1 1017.8
22 19.09 Ю 1-3
{4}
н/о н/о +6.5 +2.0 73 +6 +6 1018.6 1017.4
23 19.09 Ю 2-5
{5}
н/о н/о +6.4 +2.5 76 +4 +4 1018.0 1016.8
00 20.09 Ю 3-5
{8}
н/о н/о +6.8 +2.9 76 +4 +4 1017.4 1016.1
01 20.09 Ю 3-5
{5}
н/о н/о +7.0 +3.4 78 +4 +4 1016.7 1015.5
02 20.09 Ю 3-5
{5}
н/о н/о +7.0 +4.0 81 +4 +4 1015.9 1014.7
03 20.09 Ю 3-4
{5}
н/о н/о +7.1 +3.2 76 +4 +4 1015.4 1014.1
04 20.09 ЮВ 4-6
{7}
н/о н/о +6.9 +3.2 77 +3 +3 1014.6 1013.4
05 20.09 ЮВ 5-7
{8}
н/о н/о +6.5 +3.1 79 +2 +2 1013.7 1012.5
06 20.09 ЮВ 6-8
{8}
н/о н/о +6.8 +2.7 75 +2 +2 1013.1 1011.8 +5.9 +7.6
07 20.09 ЮВ 6-9
{9}
н/о н/о +7.0 +2.5 73 +3 +3 1012.4 1011.2
08 20.09 ЮВ 6-9
{10}
н/о н/о +7.1 +2.6 73 +3 +3 1011.9 1010.6
09 20.09 ЮВ 6-9
{10}
н/о н/о +7.2 +3.1 75 +3 +3 1011.4 1010.1
10 20.09 ЮВ 7-10
{10}
н/о н/о +7.2 +2.9 74 +3 +3 1011.0 1009.8
11 20.09 ЮВ 7-10
{10}
н/о н/о +7.1 +3.5 78 +2 +2 1010.9 1009.6
12 20.09 ЮВ 7-9
{10}
н/о н/о +7.0 +3.6 79 +2 +2 1010.4 1009.2
13 20.09 В 8-10
{10}
н/о н/о +7.5 +3.2 74 +3 +3 1009.6 1008.4
14 20.09 В 8-10
{10}
н/о н/о +7.6 +3.5 75 +3 +3 1009.2 1008.0
15 20.09 В 9-11
{11}
н/о н/о +7.8 +3.5 74 +3 +3 1008.7 1007.5
16 20.09 ЮВ 6-10
{11}
н/о н/о +7.7 +3.9 77 +4 +4 1008.6 1007.3
17 20.09 ЮВ 7-9
{10}
н/о н/о +7.4 +4.0 79 +3 +3 1008.3 1007.1
18 20.09 В 3-7
{11}
н/о н/о +7.6 +4.0 78 +5 +5 1008.7 1007.4 +6.8 +7.9
19 20.09 ЮВ 2-3
{3}
н/о н/о +7.0 +4.2 82 +5 +5 1008.6 1007.4
20 20.09 В 2-2
{2}
н/о н/о +7.3 +4.3 81 +5 +5 1008.7 1007.5
21 20.09 штиль 0-1
{1}
н/о н/о +7.2 +4.3 82 +6 +6 1009.0 1007.7
22 20.09 СВ 3-4
{5}
н/о н/о +7.6 +4.6 81 +5 +5 1009.1 1007.8
23 20.09 В 2-4
{4}
н/о н/о +7.2 +5.2 87 +5 +5 1009.2 1008.0
00 21.09 В 2-3
{5}
н/о н/о +7.7 +5.5 86 +6 +6 1009.8 1008.5
01 21.09 ЮВ 1-3
{3}
н/о н/о +7.3 +5.1 86 +6 +6 1010.0 1008.8
02 21.09 СВ 2-3
{4}
н/о н/о +8.2 +4.6 78 +6 +6 1010.3 1009.1
03 21.09 СВ 4-5
{5}
н/о н/о +8.5 +4.3 75 +5 +5 1010.8 1009.6
04 21.09 СВ 5-7
{7}
н/о н/о +8.7 +3.8 71 +5 +5 1011.3 1010.0
05 21.09 С 5-6
{8}
н/о н/о +8.7 +3.1 68 +5 +5 1011.8 1010.5
06 21.09 СВ 4-5
{8}
н/о н/о +8.6 +3.5 70 +6 +6 1012.2 1011.0 +7.0 +8.9
07 21.09 С 4-5
{6}
н/о н/о +8.9 +3.1 67 +6 +6 1012.9 1011.6
08 21.09 С 4-5
{6}
н/о н/о +9.0 +3.2 67 +6 +6 1013.4 1012.2
09 21.09 СВ 5-6
{7}
н/о н/о +9.2 +3.0 65 +6 +6 1013.8 1012.6
10 21.09 С 4-5
{6}
н/о н/о +9.3 +3.1 65 +7 +7 1014.5 1013.3
11 21.09 С 6-7
{7}
н/о н/о +9.3 +2.9 64 +6 +6 1014.9 1013.7
12 21.09 С 5-6
{7}
н/о н/о +9.3 +3.7 68 +6 +6 1015.4 1014.1
13 21.09 СВ 7-9
{13}
н/о н/о +8.6 +3.9 72 +5 +5 1015.9 1014.7
14 21.09 СВ 6-8
{8}
н/о н/о +8.9 +3.1 67 +5 +5 1016.1 1014.8
15 21.09 СВ 5-7
{7}
н/о н/о +9.0 +3.4 68 +6 +6 1016.1 1014.9
16 21.09 СВ 5-7
{7}
н/о н/о +8.8 +3.0 67 +6 +6 1016.4 1015.1
17 21.09 С 7-8
{9}
н/о н/о +8.8 +1.9 62 +5 +5 1016.6 1015.4
18 21.09 С 6-8
{13}
н/о н/о +8.7 +2.3 64 +5 +5 1017.0 1015.8 +8.5 +9.8
19 21.09 СВ 6-7
{8}
н/о н/о +8.3 +2.1 65 +5 +5 1017.4 1016.2
20 21.09 СВ 8-10
{10}
н/о н/о +8.3 +1.7 63 +4 +4 1017.7 1016.5
21 21.09 СВ 7-9
{9}
н/о н/о +8.1 +2.2 66 +4 +4 1018.2 1017.0
22 21.09 СВ 7-9
{9}
н/о н/о +8.1 +2.2 66 +4 +4 1018.4 1017.2
23 21.09 СВ 7-9
{9}
н/о н/о +7.8 +1.0 62 +4 +4 1018.7 1017.5
00 22.09 СВ 7-8
{10}
н/о н/о +7.8 +1.4 64 +4 +4 1019.2 1018.0
01 22.09 СВ 7-9
{9}
н/о н/о +7.8 +1.2 63 +4 +4 1019.8 1018.5
02 22.09 СВ 7-9
{9}
н/о н/о +7.6 +1.7 66 +3 +3 1020.1 1018.9
03 22.09 СВ 8-10
{10}
н/о н/о +7.4 +1.5 66 +3 +3 1020.3 1019.0
04 22.09 СВ 5-9
{9}
н/о н/о +6.9 +1.4 68 +3 +3 1020.9 1019.7
05 22.09 СВ 4-5
{6}
н/о н/о +6.7 +0.4 64 +3 +3 1021.3 1020.1
06 22.09 В 4-5
{10}
н/о н/о +6.7 +0.2 63 +3 +3 1021.9 1020.6 +6.6 +8.7
07 22.09 СВ 3-5
{5}
н/о н/о +7.9 -0.3 56 +6 +6 1022.2 1021.0
08 22.09 В 1-3
{3}
н/о н/о +9.2 -0.9 49 +9 +9 1022.8 1021.6
09 22.09 СВ 3-4
{4}
н/о н/о +8.8 +0.3 55 +7 +7 1022.8 1021.5
10 22.09 СВ 2-3
{4}
н/о н/о +9.1 -0.7 50 +8 +8 1023.1 1021.9
11 22.09 СВ 2-3
{3}
н/о н/о +9.4 -1.6 46 +8 +8 1023.1 1021.9
12 22.09 ЮВ 2-3
{5}
н/о н/о +9.8 -0.9 47 +9 +9 1023.1 1021.9
13 22.09 С 3-3
{3}
н/о н/о +9.4 -2.2 44 +8 +8 1023.1 1021.8
14 22.09 С 3-4
{4}
н/о н/о +9.7 -1.9 44 +8 +8 1023.0 1021.7
15 22.09 СВ 3-4
{5}
н/о н/о +9.8 -1.5 45 +8 +8 1022.7 1021.4
16 22.09 СВ 4-5
{5}
н/о н/о +9.6 -0.6 49 +7 +7 1022.4 1021.1
17 22.09 СВ 4-5
{5}
н/о н/о +8.9 -0.1 53 +6 +6 1022.2 1021.0
18 22.09 В 3-4
{5}
н/о н/о +9.0 +0.2 54 +7 +7 1022.2 1020.9 +6.8 +10.1
19 22.09 В 3-4
{5}
н/о н/о +8.5 0.0 55 +6 +6 1022.4 1021.1
20 22.09 В 4-6
{8}
н/о н/о +8.6 +0.6 57 +6 +6 1022.1 1020.9
21 22.09 В 3-6
{7}
н/о н/о +8.4 -0.6 53 +6 +6 1022.2 1021.0
22 22.09 В 8-11
{11}
н/о н/о +8.9 -1.5 48 +5 +5 1021.8 1020.5
23 22.09 ЮВ 7-10
{11}
н/о н/о +8.5 -1.6 49 +5 +5 1021.9 1020.6
00 23.09 В 9-11
{11}
н/о н/о +8.8 -1.6 48 +5 +5 1021.8 1020.6
01 23.09 В 8-11
{11}
н/о н/о +8.7 -2.5 45 +5 +5 1021.7 1020.5
02 23.09 В 7-9
{10}
н/о н/о +8.7 -2.8 44 +5 +5 1021.8 1020.6
03 23.09 ЮВ 6-8
{10}
н/о н/о +8.3 -2.3 47 +5 +5 1021.4 1020.2
04 23.09 В 8-11
{12}
н/о н/о +8.4 -3.1 44 +4 +4 1021.2 1019.9
05 23.09 В 10-13
{13}
н/о н/о +8.5 -3.3 43 +4 +4 1020.9 1019.6
06 23.09 В 7-11
{13}
н/о н/о +9.0 -2.6 44 +5 +5 1021.0 1019.8 +7.9 +9.0
07 23.09 В 8-10
{11}
н/о н/о +9.3 -1.4 47 +6 +6 1021.1 1019.8
08 23.09 ЮВ 5-9
{10}
н/о н/о +10.2 -2.1 42 +8 +8 1020.7 1019.4
09 23.09 В 7-10
{10}
н/о н/о +9.6 -1.4 46 +6 +6 1020.7 1019.5
10 23.09 ЮВ 6-9
{10}
н/о н/о +11.0 -1.7 41 +8 +8 1020.3 1019.1
11 23.09 СВ 3-6
{7}
н/о н/о +10.7 -1.3 43 +9 +9 1020.5 1019.3
12 23.09 -3
{11}
н/о н/о +10.6 -0.8 45 1020.2 1019.0
13 23.09 С 3-4
{5}
н/о н/о +10.6 -0.8 45 +9 +9 1019.8 1018.6
14 23.09 С 4-4
{4}
н/о н/о +10.8 +0.8 50 +9 +9 1019.5 1018.3
15 23.09 С 6-7
{8}
н/о н/о +10.3 +1.9 56 +7 +7 1019.0 1017.8
16 23.09 С 5-7
{7}
н/о н/о +9.9 +1.8 57 +7 +7 1018.8 1017.6
17 23.09 СВ 5-5
{5}
н/о н/о +9.9 +1.3 55 +7 +7 1018.6 1017.4
18 23.09 СВ 5-6
{8}
н/о н/о +9.8 +0.4 52 +7 +7 1018.4 1017.2 +9.0 +11.1
19 23.09 СВ 5-6
{6}
н/о н/о +9.5 +3.1 64 +7 +7 1018.2 1017.0

 

Местоположение метеостанции Солвер III (Норвегия): широта 66.37 долгота 12.61 высота над уровнем моря 10 м.

В архиве по умолчанию представлена погода в Солвер III за последнюю неделю. Архивные данные за месяц целиком и за предыдущие месяцы, начиная с января 2011 года, Вы можете получить, выбрав интересующий диапазон дат из раскрывающегося списка и нажав кнопку "Ввод!".


*Определитесь, кто Вы:
робот инопланетянин человек

Внимание! Время в таблицах - всемирное. Для получения местного времени необходимо прибавить поправку, которая равна 1 ч.

Смотрите также архив погоды в соседних городах и на ближайших метеорологических станциях:

Погода на Мыкене (Норвегия) (45 км)
Погода в Саннесшёэн аэропорту (Норвегия) (46 км)
Погода в Сельджеля (Норвегия) (51 км)
Погода в Скамдале (Норвегия) (59 км)
Погода в Хьётте (Норвегия) (61 км)
Погода в Мосьен аэропорту (Норвегия) (71 км)
Погода в Рейпе (Норвегия) (75 км)
Погода в Аэропорту Mo i Rana (Норвегия) (75 км)
Погода в Вега-Валсё (Норвегия) (82 км)
Погода в Сторфоршее (Норвегия) (86 км)

Пояснения к столбцам:

Ветер - указаны скорость ветра в м/с - средняя за 10 мин, порывы в срок и между сроками (в фигурных скобках) и направление, откуда дует ветер: С - северный, СВ - северо-восточный, В - восточный, ЮВ - юго-восточный, Ю - южный, ЮЗ - юго-западный, З - западный, СЗ - северо-западный.
Видимость - горизонтальная дальность видимости в метрах или километрах. При видимости от 1 до 10 км при отсутствии осадков обычно наблюдается дымка, при ухудшении видимости до 1 км и менее - туман. В сухую погоду видимость может ухудшаться дымом, пылью или мглою.
Явления - указаны атмосферные явления, наблюдавшиеся в срок или в последний час перед сроком; фигурными скобками обозначены явления, наблюдавшиеся между сроками (за 1-3 часа до срока); квадратными скобками обозначены град или гололедные отложения с указанием их диаметра в мм.
Облачность - указаны через наклонную черту общая и нижняя облачность в баллах и высота нижней границы облаков в метрах; квадратными скобками обозначены формы облаков: Ci - перистые, Cs - перисто-слоистые, Cc - перисто-кучевые, Ac - высококучевые, As - высокослоистые, Sc - слоисто-кучевые, Ns - слоисто-дождевые, Cu - кучевые, Cb - кучево-дождевые. Подробнее классификацию облаков см. в Атласе облаков (PDF).
T - Температура воздуха - температура, измеренная на высоте 2 м над землей.
Td - Температура точки росы - температура, при понижении до которой содержащийся в воздухе водяной пар достигнет насыщения.
f - Относительная влажность воздуха - влажноcть воздуха, измеренная на высоте 2 м над землей.
Te - Эффективная температура - температура, которую ощущает одетый по сезону человек в тени. Характеристика душности погоды. При расчете учитывается влияние влажности воздуха и скорости ветра на теплоощущения человека.
Tes - Эффективная температура на солнце - температура, которую ощущает человек, с поправкой на солнечный нагрев. Характеристика знойности погоды. Зависит от высоты солнца над горизонтом, облачности и скорости ветра. Ночью, в пасмурную погоду, а также при ветре 12 м/с и более поправка равна нулю.
P - Атмосферное давление - приведенное к уровню моря атмосферное давление.
Po - Атмосферное давление - измеренное на уровне метеостанции атмосферное давление.
Tmin - Минимальная температура - минимум температуры воздуха на высоте 2 м над землей.
Tmax - Максимальная температура - максимум температуры воздуха на высоте 2 м над землей.
R - Количество осадков - Количество выпавших осадков за период времени, мм. При наведении курсора мыши на число - период времени, за который выпало указанное количество осадков.
R24 - Количество осадков - Количество выпавших осадков за 24 часа, мм.
S - Снежный покров - Высота снежного покрова, см. При наведении курсора мыши на число - состояние снежного покрова и степень покрытия местности в баллах.